Back to catalog

CZ-4 DEB

AlivePO
NORAD 35331·DEBRIS·🇨🇳 China

Launched Oct 14, 1999 from Taiyuan Satellite Launch Center

Loading…

Next Passes (next 24 hours)

TLE

FreshSource: Space-Track

Epoch: Sep 14, 2026, 13:57 UTC

1 35331U 99057SK  26257.58175035  .00006193  00000-0  79370-3 0  9999
2 35331  98.5549  20.3114 0066158  28.3008  33.6845 14.80135032671465

Track CZ-4 DEB in real time with AllMySat

Download on the App Store